Weather History for San Nicolas Island, CA

Change the Weather History Date:

Friday, November 2, 2012

  Actual Average Record
Temperature  
Mean Temperature 71 °F -  
Max Temperature 84 °F 63 °F 88 °F (1997)
Min Temperature 63 °F 53 °F 50 °F (1999)
Cooling Degree Days 6    
Growing Degree Days 21 (Base 50)    
Moisture  
Dew Point 56 °F    
Average Humidity 59    
Maximum Humidity 76    
Minimum Humidity 44    
Precipitation  
Precipitation 0.00 in - - ()
Sea Level Pressure  
Sea Level Pressure 29.96 in    
Wind  
Wind Speed 11 mph (WNW)    
Max Wind Speed 16 mph    
Max Gust Speed -    
Visibility 6 miles    
Events Rain    
Averages and records for this station are not official NWS values.
T = Trace of Precipitation, MM = Missing Value Source: NWS Daily Summary

Daily Weather History Graph

Daily Weather History Graph

Search for Another Location

Airport:

Trip Planner

Search our weather history database for the weather conditions in past years. The results will help you decide how hot, cold, wet, or windy it might be!

Date:

Astronomy

Nov. 02, 2012 Rise Set
Actual Time 7:17 AM PDT 6:04 PM PDT
Civil Twilight 6:51 AM PDT 6:30 PM PDT
Nautical Twilight 6:22 AM PDT 6:59 PM PDT
Astronomical Twilight 5:53 AM PDT 7:28 PM PDT
Moon 9:02 PM PDT (11/2) 10:35 AM PDT (11/2)
Length of Visible Light 11h 38m
Length of Day
10h 47m
Waning Gibbous, 86% of the Moon is Illuminated
Nov 2
Waning Gibbous
Nov 6
Last Quarter
Nov 13
New
Nov 20
First Quarter
Nov 28
Full

Hourly Weather History & Observations

Time (PDT) Temp. Dew Point Humidity Pressure Visibility Wind Dir Wind Speed Gust Speed Precip Events Conditions
12:53 AM 75.0 °F 57.0 °F 53% 29.98 in - West 10.4 mph - 0.00 in Rain Light Rain
1:22 AM 71.6 °F 57.2 °F 60% 30.00 in - West 9.2 mph - 0.00 in   Overcast
1:53 AM 71.1 °F 55.9 °F 59% 29.97 in - West 10.4 mph - 0.00 in   Overcast
2:02 AM 71.6 °F 55.4 °F 57% 29.99 in - West 10.4 mph - N/A   Overcast
2:53 AM 72.0 °F 55.9 °F 57% 29.97 in - WNW 11.5 mph - N/A   Overcast
3:03 AM 73.4 °F 55.4 °F 53% 29.99 in - WNW 12.7 mph - N/A   Overcast
3:53 AM 71.1 °F 55.9 °F 59% 29.96 in - WNW 15.0 mph - N/A   Overcast
4:53 AM 70.0 °F 55.0 °F 59% 29.95 in - WNW 16.1 mph - N/A   Overcast
5:53 AM 71.1 °F 55.9 °F 59% 29.95 in - NW 13.8 mph - N/A   Overcast
6:09 AM 64.4 °F 55.4 °F 73% 29.97 in 4.0 mi NW 10.4 mph - N/A   Haze
6:53 AM 63.7 °F 55.9 °F 76% 29.96 in 4.0 mi NW 12.7 mph - N/A   Haze
7:53 AM 63.5 °F 55.9 °F 76% 29.97 in 4.0 mi NW 9.2 mph - N/A   Haze
8:20 AM 78.8 °F 55.4 °F 44% 29.99 in - NW 6.9 mph - N/A   Overcast
8:53 AM 79.0 °F 55.9 °F 45% 29.98 in - West 9.2 mph - N/A   Overcast
9:53 AM 64.6 °F 55.9 °F 74% 30.00 in 7.0 mi West 10.4 mph - N/A   Overcast
10:53 AM 65.5 °F 55.9 °F 71% 30.00 in 7.0 mi WNW 9.2 mph - N/A   Overcast
11:53 AM 65.5 °F 55.0 °F 69% 29.99 in 7.0 mi WNW 11.5 mph - N/A   Overcast
12:51 PM 66.2 °F 55.4 °F 68% 29.98 in 7.0 mi NW 11.5 mph - N/A   Mostly Cloudy
12:53 PM 66.0 °F 55.9 °F 70% 29.97 in 7.0 mi NW 9.2 mph - N/A   Mostly Cloudy
1:53 PM 66.0 °F 55.9 °F 70% 29.94 in 7.0 mi NW 9.2 mph - N/A   Mostly Cloudy
2:53 PM 66.2 °F 55.0 °F 67% 29.93 in 7.0 mi NW 10.4 mph - N/A   Mostly Cloudy
3:53 PM 78.1 °F 55.9 °F 46% 29.94 in 7.0 mi NW 12.7 mph - N/A   Mostly Cloudy
4:53 PM 77.0 °F 55.0 °F 47% 29.94 in - NW 13.8 mph - N/A   Partly Cloudy
5:16 PM 75.2 °F 55.4 °F 50% 29.96 in - WNW 12.7 mph - N/A   Mostly Cloudy
5:40 PM 75.2 °F 55.4 °F 50% 29.95 in - NW 12.7 mph - N/A   Partly Cloudy
5:53 PM 75.0 °F 55.9 °F 51% 29.94 in - WNW 11.5 mph - N/A   Clear
6:08 PM 73.4 °F 55.4 °F 53% 29.96 in - WNW 12.7 mph - N/A   Scattered Clouds
6:19 PM 71.6 °F 55.4 °F 57% 29.95 in - WNW 13.8 mph - N/A   Mostly Cloudy
6:28 PM 71.6 °F 55.4 °F 57% 29.96 in - NW 15.0 mph - N/A   Scattered Clouds
6:53 PM 71.1 °F 55.9 °F 59% 29.94 in - WNW 13.8 mph - N/A   Scattered Clouds
7:53 PM 71.1 °F 55.0 °F 57% 29.95 in - NW 16.1 mph - N/A   Clear
8:53 PM 69.1 °F 55.0 °F 61% 29.95 in - WNW 16.1 mph - N/A   Clear
9:53 PM 73.0 °F 55.0 °F 53% 29.96 in - WNW 10.4 mph - N/A   Clear
10:53 PM 73.0 °F 54.0 °F 51% 29.97 in - WNW 9.2 mph - N/A   Partly Cloudy
11:53 PM 73.0 °F 55.0 °F 53% 29.96 in - West 10.4 mph - N/A   Partly Cloudy